CZ-3A R/B, 43492

Orbit data source: Space-Track

CZ-3A R/B, 43492 is space debris in HEO originally from a launch on Tue, 05 Jun 2018 UTC launched from the Xichang Space Center, China (XSC). Debris objects in space refer to the collection of defunct objects orbiting the Earth. Examples of debris include non-operational satellites, rocket bodies, and fragments generated from explosions, collisions, or faulty payload assembly.

Loading next visibility...
Identifier
43492, 2018-050B
Orbit
HEO
Country
Flag of CNCN / PRC
Related business
Manufacturer
CALT
Mission
Spacecraft
Bus & Motor
CZ-3A STAGE 3, Unknown motor
Mass
~2,800 kg wet, ~2,800 kg dry
Launch date (UTC)
2018-06-05 (8 years ago)
Launch vehicle
Unknown
Launch site
Xichang Space Center, China (XSC)
Object type
Payload
Rocket body
Debris
Shape & HBR
Cyl + 1 Nozzle, 6.2 m
Radar Cross Section
32.704 m², Large (>1 m²)

Expand to show TLE details & history
Last TLE update: 1 day ago

TLE from 1 day ago
0 CZ-3A R/B
1 43492U 18050B   25352.16536928  .00006609  00000-0  29874-2 0  9996
2 43492  23.9838 147.8658 7257457 122.5019 327.6684  2.29819589 62000
Epoch: 2025-12-18T03:58Z
TLE epoch observation values (Epoch: 2025-12-18T03:58:07.905Z)
Latitude
-0.00022°
Longitude
1.29529°
Altitude
12,388.911 km
Speed
5.103 km/s
True Right ascension
09h 51m 24s
True Declination
0° 00' 01"
Sunlit
Object was in daylight at epoch
Visualization orbit readout
Latitude
Unknown
Longitude
Unknown
Altitude
Unknown
Speed
Unknown
Apparent Right ascension
Unknown
Apparent Declination
Unknown
Sunlit
N/A
Visualization observer readout
Local Sidereal Time
14:42:03
Azimuth
Unknown
Elevation
Unknown
Doppler factor
Unknown
Orbital elements
Apogee altitude
35,487.977 km
Perigee altitude
275.197 km
Semi-major axis
24,259.724 km
Eccentricity
0.72575
Inclination
23.9838°
RAAN
147.8658°
Arg. of periapsis
122.5019°
True anomaly
237.64544°
Mean anomaly
327.6684°
Eccentric anomaly
288.1567°
Mean motion
0.5744 °/min
Orbital period
626.74 mins
BSTAR
0.0029874
Loading maneuver chart data...
Computing Atmospheric mass density...
Loading historical data...
Loading historical data...
Loading historical data...
Loading historical data...
Loading historical data...
Loading historical data...
Loading historical data...
Other satellites on launch #50 in the year 2018 (2018-06-05 UTC)

Documentation

Showing up to 5 results
|